[[{"header":{"parameterUnit":"m.s-1","parameterCategory":1,"la1":30.2992,"la2":30.254,"lo1":-89.0895,"lo2":-89.0443,"dy":0.0025,"dx":0.0025,"nx":19,"ny":19,"refTime":"2026-05-14T09:00:00:Z","depth":0,"parameterNumber":2,"parameterNumberName":"U-component_of_WINDS"},"data":[0,0,0,1.213,1.213,1.2144,1.2144,1.2165,1.2165,0,0,0,0,0,0,0,0,0,0,0,1.2128,1.2129,1.213,1.213,1.2144,1.2144,1.2165,1.2165,0,0,0,0,0,0,0,0,0,0,0,1.2128,1.2129,1.2129,1.2131,1.2144,1.2144,1.2165,1.2153,0,0,0,0,0,0,0,0,0,0,1.2139,1.214,1.2129,1.2129,1.2131,1.2144,1.2144,1.2153,1.2154,1.216,0,1.2167,0,1.2167,1.2167,1.2167,0,0,0,1.2128,1.2139,1.2141,1.2129,1.2131,1.2144,1.2137,1.2153,1.2155,1.2162,1.2167,1.2168,1.2167,1.2167,1.2167,1.2213,1.2213,0,0,1.2128,1.2132,1.214,1.2142,1.214,1.2137,1.2138,1.2154,1.216,1.2167,1.2168,1.2167,1.2167,1.2167,1.2213,1.2213,0,0,0,1.2127,1.2131,1.2133,1.2141,1.2143,1.2137,1.2138,1.2159,1.2159,1.2169,1.2168,1.2167,1.2168,1.2212,1.2213,1.2233,0,0,0,1.2126,1.2131,1.2132,1.2135,1.2143,1.2151,1.2143,1.2158,1.216,1.2167,1.2167,1.2168,1.2212,1.2213,1.2231,1.2241,0,0,0,1.2127,1.2131,1.2134,1.2135,1.2141,1.2151,1.2152,1.2158,1.2159,1.2167,1.2168,1.2212,1.2212,1.223,1.2239,1.2255,0,0,0,1.2128,1.215,1.2134,1.2159,1.2141,1.2164,1.2152,1.2168,1.2177,1.2167,1.2212,1.2213,1.223,1.2238,1.2253,1.2268,1.2275,0,0,1.2158,1.2154,1.2168,1.2154,1.2181,1.2161,1.219,1.2194,1.219,1.2206,1.2207,1.2232,1.2239,1.2254,1.2312,1.2317,0,0,0,1.2179,1.219,1.2196,1.2205,1.221,1.2214,1.2213,1.2215,1.2228,1.2199,1.2242,1.2246,1.2255,1.2261,1.2266,1.2273,1.2216,1.2216,1.2216,1.2227,1.2223,1.2247,1.2244,1.2254,1.2254,1.2261,1.2263,1.2254,1.2265,1.2269,1.2304,1.2313,1.2316,1.2324,1.2277,1.2277,1.2277,1.2277,1.2271,1.2285,1.2276,1.2295,1.2291,1.2307,1.2308,1.2302,1.2316,1.23,1.2308,1.2291,1.2322,1.2329,1.2278,1.2278,1.2278,1.2278,1.2278,1.2302,1.2308,1.2311,1.2325,1.2337,1.2334,1.2349,1.2343,1.2339,1.2346,1.235,1.235,1.2349,1.2349,1.2349,1.2349,1.2349,1.2349,1.2349,1.2332,1.2335,1.2348,1.2356,1.2363,1.237,1.2372,1.2378,1.2383,1.2378,1.2378,1.2369,1.2326,1.2316,1.2351,1.2351,1.2351,1.235,1.235,1.2377,1.2367,1.2388,1.2394,1.2404,1.2416,1.2411,1.2424,1.2428,1.2435,1.2425,1.2395,1.2389,1.2386,1.2377,1.2426,1.2426,1.2426,1.2426,1.2403,1.2401,1.2421,1.2432,1.2443,1.244,1.2464,1.2466,1.2466,1.2468,1.2461,1.2449,1.2445,1.2442,1.2437,1.2429,1.249,1.249,1.249,1.243,1.2429,1.245,1.2452,1.246,1.2467,1.2489,1.2502,1.2499,1.2493,1.247,1.2467,1.2448,1.2442,1.2433,1.2426,1.241,0,0]},{"header":{"parameterUnit":"m.s-1","parameterCategory":1,"la1":30.2992,"la2":30.254,"lo1":-89.0895,"lo2":-89.0443,"dy":0.0025,"dx":0.0025,"nx":19,"ny":19,"refTime":"2026-05-14T09:00:00:Z","depth":0,"parameterNumber":3,"parameterNumberName":"V-component_of_WINDS"},"data":[0,0,0,-1.8986,-1.8989,-1.9147,-1.9148,-1.9338,-1.934,0,0,0,0,0,0,0,0,0,0,0,-1.8932,-1.8933,-1.8986,-1.8989,-1.9147,-1.9148,-1.9338,-1.934,0,0,0,0,0,0,0,0,0,0,0,-1.8932,-1.8933,-1.8934,-1.899,-1.9147,-1.9148,-1.9338,-1.9222,0,0,0,0,0,0,0,0,0,0,-1.9071,-1.9015,-1.8933,-1.8934,-1.8991,-1.9147,-1.9148,-1.9217,-1.923,-1.9262,0,-1.9289,0,-1.9318,-1.9352,-1.9353,0,0,0,-1.8994,-1.9004,-1.9053,-1.8934,-1.8992,-1.9147,-1.9077,-1.9224,-1.9238,-1.9278,-1.9292,-1.9299,-1.9321,-1.9353,-1.9354,-1.9526,-1.9526,0,0,-1.8985,-1.8957,-1.9043,-1.9062,-1.9037,-1.9072,-1.9082,-1.9233,-1.9245,-1.9293,-1.9304,-1.9324,-1.9354,-1.9356,-1.9525,-1.9526,0,0,0,-1.8957,-1.895,-1.8996,-1.9054,-1.9083,-1.9077,-1.9088,-1.9239,-1.9256,-1.9306,-1.9326,-1.9355,-1.9358,-1.9524,-1.9525,-1.9526,0,0,0,-1.8952,-1.8934,-1.8992,-1.8976,-1.908,-1.9163,-1.909,-1.9246,-1.9264,-1.9325,-1.9355,-1.9359,-1.9524,-1.9525,-1.9525,-1.953,0,0,0,-1.8924,-1.8931,-1.8951,-1.8974,-1.9041,-1.9161,-1.9188,-1.925,-1.9276,-1.9353,-1.936,-1.9523,-1.9525,-1.9523,-1.9529,-1.9567,0,0,0,-1.8886,-1.8949,-1.8951,-1.9029,-1.9039,-1.9161,-1.9187,-1.9279,-1.9345,-1.9356,-1.9524,-1.9525,-1.9523,-1.9528,-1.9566,-1.9594,-1.9604,0,0,-1.8949,-1.8955,-1.9004,-1.901,-1.9124,-1.9139,-1.9254,-1.9341,-1.9374,-1.9473,-1.9478,-1.9525,-1.9528,-1.9567,-1.9667,-1.9674,0,0,0,-1.9014,-1.9048,-1.9085,-1.9147,-1.9217,-1.9277,-1.935,-1.9383,-1.9469,-1.9419,-1.9551,-1.9554,-1.9578,-1.9592,-1.9599,-1.9621,-1.9531,-1.9531,-1.9531,-1.9061,-1.9102,-1.9185,-1.9245,-1.9305,-1.9381,-1.9434,-1.9491,-1.9513,-1.9544,-1.9573,-1.9629,-1.9645,-1.965,-1.9673,-1.9592,-1.9592,-1.9592,-1.9592,-1.9157,-1.9212,-1.9242,-1.9334,-1.9376,-1.9454,-1.953,-1.9543,-1.9621,-1.961,-1.9633,-1.9615,-1.9657,-1.9679,-1.9592,-1.9592,-1.9592,-1.9592,-1.9592,-1.9191,-1.9225,-1.9265,-1.9361,-1.943,-1.9489,-1.9563,-1.9599,-1.9634,-1.9657,-1.9691,-1.9692,-1.9696,-1.9671,-1.9671,-1.9671,-1.9672,-1.9672,-1.9672,-1.921,-1.9256,-1.9314,-1.9395,-1.944,-1.9505,-1.9584,-1.963,-1.969,-1.9711,-1.9711,-1.973,-1.9654,-1.9633,-1.9675,-1.9674,-1.9674,-1.9674,-1.9673,-1.929,-1.9279,-1.9368,-1.9415,-1.9513,-1.958,-1.9627,-1.9718,-1.9761,-1.9796,-1.9812,-1.975,-1.9758,-1.9753,-1.9736,-1.9803,-1.9803,-1.9803,-1.9803,-1.9318,-1.9327,-1.9428,-1.95,-1.9574,-1.9626,-1.9727,-1.979,-1.9852,-1.9882,-1.9878,-1.9859,-1.9853,-1.9865,-1.9858,-1.9843,-1.9935,-1.9935,-1.9935,-1.937,-1.9388,-1.9466,-1.9529,-1.961,-1.9678,-1.9774,-1.9855,-1.9923,-1.9941,-1.9905,-1.99,-1.987,-1.9858,-1.9873,-1.9861,-1.9835,0,0]}]]